Regional Weather Roundup
Issued by NWS

Home | Current Version | Previous Version | Text Only | Print | Product List | Glossary On
Versions: 1 2 3 4 5 6 7 8 9 10 11 12 13 14 15 16 17 18 19 20 21 22 23 24 25 26 27 28
000
ASUS45 KCYS 211310
RWRWY

WYOMING REGIONAL WEATHER ROUNDUP
NATIONAL WEATHER SERVICE CHEYENNE WY
700 AM MDT MON MAY 21 2018

NOTE:  "FAIR" INDICATES FEW OR NO CLOUDS BELOW 12,000 FEET
WITH NO SIGNIFICANT WEATHER AND/OR OBSTRUCTIONS TO VISIBILITY.

WYZ001-211400-
YELLOWSTONE NATIONAL PARK

CITY           SKY/WX    TMP DP  RH WIND       PRES   REMARKS
LK YELLOWSTONE   N/A     33  32  96 CALM      30.13R
W YELLOWSTONE  NOT AVBL

$$
WYZ002>013-054>058-071-098>099-211400-
NORTHERN WYOMING

CITY           SKY/WX    TMP DP  RH WIND       PRES   REMARKS
JACKSON        FAIR      40  38  93 CALM      30.07S
CODY           FAIR      56  42  59 SW7       29.97R
GREYBULL       FAIR      52  46  80 NE3       29.92R
WORLAND        FAIR      48  47  96 S5        29.93R
SHERIDAN       FAIR      47  44  90 CALM      29.94R
BUFFALO        FAIR      50  45  83 CALM      29.96S
GILLETTE       FAIR      49  41  74 S13       29.96R
NEWCASTLE      FAIR      52  39  62 E13G18    30.00S

$$
WYZ014>020-022>026-101>103-211400-
CENTRAL WYOMING

CITY           SKY/WX    TMP DP  RH WIND       PRES   REMARKS
BIG PINEY      FAIR      39  37  92 NW6       30.08R WCI  35
PINEDALE       FAIR      36  36 100 NW6       30.09S WCI  31
DUBOIS         FAIR      41  36  81 NW12      30.07S
LANDER         FAIR      48  42  80 SW3       29.99R
RIVERTON       FAIR      50  46  86 W8        30.00R
CASPER         FAIR      46  44  93 CALM      30.01R
DOUGLAS        FAIR      46  46 100 SE8       30.01S

$$
WYZ021-027>030-104>119-211400-
SOUTHERN WYOMING

CITY           SKY/WX    TMP DP  RH WIND       PRES   REMARKS
EVANSTON       FAIR      42  38  85 E7        30.05R
KEMMERER       FAIR      37  34  87 N12       30.07R WCI  30
FORT BRIDGER   FAIR      43  37  79 W5        30.08S
ROCK SPRINGS   FAIR      47  38  71 S8        30.05
DIXON          FAIR      45  38  75 SE6       30.10R
RAWLINS        FAIR      43  39  86 CALM      30.08S
SARATOGA       FAIR      46  37  71 SE12      30.10R
LARAMIE        FAIR      40  36  86 S5        30.08S
CHEYENNE       FAIR      45  41  86 W9        30.04R
TORRINGTON     FAIR      48  47  96 E8        30.00R
PINE BLUFFS    FOG       43  43 100 CALM      30.03F VSB 1/4

$$




USA.gov is the U.S. government's official web portal to all federal, state and local government web resources and services.